Regional Weather Roundup
Issued by NWS Albany, NY

Current Version | Previous Version | Graphics & Text | Print | Product List | Glossary On
Versions: 1 2 3 4 5 6 7 8 9 10 11 12 13 14 15 16 17 18 19 20 21 22 23 24 25 26 27 28 29 30 31 32 33 34 35 36 37 38 39 40 41 42 43 44 45 46 47 48 49 50
969
ASUS41 KALY 140710
RWRALY

NEW YORK STATE HOURLY WEATHER ROUNDUP
NATIONAL WEATHER SERVICE ALBANY NY
200 AM EST THU NOV 14 2019

NOTE: "FAIR" INDICATES FEW OR NO CLOUDS BELOW 12,000 FEET WITH NO
SIGNIFICANT WEATHER AND/OR NO OBSTRUCTIONS TO VISIBILITY.

NYZ032-033-038>043-046>054-057>066-NYZ062>081-082-084-140800-
EAST


CITY           SKY/WX    TMP DP  RH WIND       PRES   REMARKS
ALBANY         CLOUDY    21  11  65 CALM      30.44S
GLENS FALLS    CLOUDY    19  11  70 CALM      30.41F
POUGHKEEPSIE   FAIR      19  12  74 CALM      30.45S
MONTGOMERY     FAIR      18  13  80 CALM      30.42S
WHITE PLAINS   FAIR      22   6  50 NE6       30.43S WCI  14
ISLIP          FAIR      22  14  71 CALM      30.45S
NEW YORK CITY  MOCLDY    30   9  41 E6        30.45F WCI  24
CENTRAL PARK   FAIR      30   9  41 VRB6      30.46S WCI  24
$$

NYZ005>009-017-018-044>046-055-056-140800-
CENTRAL


CITY           SKY/WX    TMP DP  RH WIND       PRES   REMARKS
FULTON         FAIR      23   8  52 SE7       30.28F WCI  15
SYRACUSE       CLOUDY    23  10  57 E12       30.30F WCI  12
ROME           FAIR      20  12  71 E8        30.36F WCI  10
ELMIRA         FAIR      26  14  60 E5        30.26F WCI  20
BINGHAMTON     MOCLDY    19   7  59 S9        30.24F WCI   8
MONTICELLO     FAIR      15  11  83 E5        30.35S WCI   8
$$

NYZ026>034-041>043-087-140800-
NORTH


CITY           SKY/WX    TMP DP  RH WIND       PRES   REMARKS
WATERTOWN      CLOUDY    23   8  52 SE5       30.30F WCI  17
FORT DRUM      NOT AVBL
OGDENSBURG     LGT SNOW  18  12  79 VRB6      30.32S WCI   9
MASSENA        CLOUDY    15   8  73 CALM      30.37F
SARANAC LAKE   CLOUDY     9   4  80 CALM      30.25F
PLATTSBURGH    CLOUDY    13   9  84 CALM      30.39F
$$

NYZ001>004-010>016-019>021-085-140800-
WEST


CITY           SKY/WX    TMP DP  RH WIND       PRES   REMARKS
NIAGARA FALLS  CLOUDY    28  18  66 S9        30.16F WCI  19
BUFFALO        CLOUDY    27  17  66 S7        30.17F WCI  19
DUNKIRK        MIX PCPN  28  15  58 S16       30.17F WCI  16
JAMESTOWN      CLOUDY    22  15  75 S9        30.14S WCI  12
WELLSVILLE     CLOUDY    22  11  62 S12G20    30.16S WCI  10
ROCHESTER      CLOUDY    23  14  68 SE8       30.22F WCI  14
PENN YAN       MOCLDY    26  13  57 S7        30.22F WCI  18
$$

             KEY
       WCI = WIND CHILL INDEX
       VSB = VISIBILITY
       HX  = HEAT INDEX
$$




USA.gov is the U.S. government's official web portal to all federal, state and local government web resources and services.